This is the latest recevied weather packets stored in our database for station/object K4CRS-13. If no packets are shown the sender has not sent any weather packets the latest 10 day(s).
| Time | Temp. | Humidity | Pressure | Rain* | Wind** | Luminosity | Snow |
|---|---|---|---|---|---|---|---|
| 1787413139 | 30.56° C | 60% | 1052.3 hPa | 0 mm | - | 636 W/m² | - |
| 1787412835 | 30° C | 63% | 1052.4 hPa | 0 mm | - | 626 W/m² | - |
| 1787412528 | 30° C | 66% | 1052.3 hPa | 0 mm | - | 620 W/m² | - |
| 1787412224 | 30° C | 62% | 1052.3 hPa | 0 mm | - | 606 W/m² | - |
| 1787411920 | 30° C | 64% | 1052.3 hPa | 0 mm | - | 589 W/m² | - |
| 1787411617 | 30° C | 66% | 1052.4 hPa | 0 mm | - | 585 W/m² | - |
| 1787411311 | 30° C | 64% | 1052.6 hPa | 0 mm | - | 574 W/m² | - |
| 1787411007 | 30° C | 62% | 1052.4 hPa | 0 mm | - | 561 W/m² | - |
| 1787410703 | 30.56° C | 65% | 1052.3 hPa | 0 mm | - | 549 W/m² | - |
| 1787410399 | 30° C | 64% | 1052.3 hPa | 0 mm | - | 534 W/m² | - |
| 1787410093 | 30° C | 64% | 1052.6 hPa | 0 mm | - | 520 W/m² | - |
| 1787409790 | 30° C | 67% | 1052.2 hPa | 0 mm | - | 509 W/m² | - |
| 1787409485 | 29.44° C | 70% | 1052.3 hPa | 0 mm | - | 491 W/m² | - |
| 1787409181 | 29.44° C | 68% | 1052.3 hPa | 0 mm | - | 478 W/m² | - |
| 1787408877 | 28.89° C | 69% | 1052 hPa | 0 mm | - | 463 W/m² | - |
| 1787408573 | 29.44° C | 68% | 1052.2 hPa | 0 mm | - | 441 W/m² | - |
| 1787408268 | 28.89° C | 70% | 1052.2 hPa | 0 mm | - | 429 W/m² | - |
| 1787407964 | 28.89° C | 70% | 1052.2 hPa | 0 mm | - | 409 W/m² | - |
| 1787407664 | 28.89° C | 72% | 1052.2 hPa | 0 mm | - | 393 W/m² | - |
| 1787407359 | 28.89° C | 70% | 1052 hPa | 0 mm | - | 377 W/m² | - |
| 1787407056 | 28.33° C | 74% | 1052.2 hPa | 0 mm | - | 365 W/m² | - |
| 1787406751 | 27.78° C | 75% | 1052.2 hPa | 0 mm | - | 350 W/m² | - |
| 1787406446 | 27.78° C | 76% | 1052.1 hPa | 0 mm | - | 331 W/m² | - |
| 1787406142 | 27.78° C | 76% | 1052.3 hPa | 0 mm | - | 212 W/m² | - |
| 1787405838 | 27.22° C | 78% | 1052.1 hPa | 0 mm | - | 294 W/m² | - |
* Rain latest hour (hover to see other rain measurements)
** Current wind speed in m/s (hover to see current wind gust speed)